Weather History for Clayton Lake, ME

Change the Weather History Date:

Tuesday, April 1, 2014

  Actual Average Record
Temperature  
Mean Temperature 28 °F -  
Max Temperature 47 °F 36 °F 61 °F (2006)
Min Temperature 11 °F 17 °F 5 °F (2003)
Degree Days  
Heating Degree Days 36    
Moisture  
Dew Point 12 °F    
Average Humidity 57    
Maximum Humidity 90    
Minimum Humidity 19    
Precipitation  
Precipitation 0.03 in - - ()
Sea Level Pressure  
Sea Level Pressure 30.18 in    
Wind  
Wind Speed 3 mph (NNE)    
Max Wind Speed 12 mph    
Max Gust Speed 18 mph    
Averages and records for this station are not official NWS values.
T = Trace of Precipitation, MM = Missing Value Source: NWS Daily Summary

Daily Weather History Graph

Daily Weather History Graph

Search for Another Location

Airport:

Trip Planner

Search our weather history database for the weather conditions in past years. The results will help you decide how hot, cold, wet, or windy it might be!

Date:

Astronomy

Apr. 01, 2014 Rise Set
Actual Time 6:17 AM EDT 7:07 PM EDT
Civil Twilight 5:47 AM EDT 7:37 PM EDT
Nautical Twilight 5:10 AM EDT 8:14 PM EDT
Astronomical Twilight 4:32 AM EDT 8:52 PM EDT
Moon 7:11 AM EDT (4/1) 9:35 PM EDT (4/1)
Length of Visible Light 13h 50m
Length of Day
12h 49m
Waxing Crescent, 4% of the Moon is Illuminated
Apr 1
Waxing Crescent
Apr 7
First Quarter
Apr 15
Full
Apr 22
Last Quarter
Apr 29
New

Hourly Weather History & Observations

Time (EDT) Temp. Windchill Dew Point Humidity Pressure Visibility Wind Dir Wind Speed Gust Speed Precip Events Conditions
12:16 AM 24.8 °F 20.5 °F 19.6 °F 81% 30.20 in - Variable 3.5 mph - 0.00 in   Unknown
1:16 AM 22.3 °F 17.6 °F 17.4 °F 82% 30.19 in - Variable 3.5 mph - N/A   Unknown
2:16 AM 20.8 °F - 14.9 °F 78% 30.20 in - Calm Calm - N/A   Unknown
3:16 AM 18.9 °F - 13.8 °F 81% 30.20 in - Calm Calm - N/A   Unknown
4:16 AM 14.5 °F - 10.6 °F 84% 30.20 in - Variable 2.3 mph - 0.00 in   Unknown
5:16 AM 11.8 °F 5.7 °F 8.8 °F 88% 30.21 in - Variable 3.5 mph - N/A   Unknown
6:16 AM 11.1 °F - 7.5 °F 85% 30.24 in - Variable 2.3 mph - 0.01 in   Unknown
7:16 AM 16.9 °F - 12.0 °F 81% 30.25 in - Calm Calm - 0.01 in   Unknown
8:16 AM 24.4 °F - 12.0 °F 59% 30.26 in - Calm Calm - 0.01 in   Unknown
9:16 AM 29.1 °F 23.0 °F 10.6 °F 46% 30.25 in - Variable 5.8 mph - N/A   Unknown
10:16 AM 32.4 °F 23.5 °F 7.0 °F 34% 30.24 in - North 11.5 mph 18.4 mph N/A   Unknown
11:16 AM 36.7 °F 32.0 °F 9.3 °F 32% 30.21 in - Variable 5.8 mph 13.8 mph N/A   Unknown
12:16 PM 39.4 °F 33.8 °F 10.0 °F 30% 30.18 in - NNE 8.1 mph 17.3 mph N/A   Unknown
1:16 PM 42.6 °F 37.8 °F 8.2 °F 24% 30.16 in - NNE 8.1 mph 16.1 mph N/A   Unknown
2:16 PM 43.5 °F 38.9 °F 6.6 °F 22% 30.15 in - NNE 8.1 mph 16.1 mph N/A   Unknown
3:16 PM 45.5 °F 40.8 °F 7.2 °F 21% 30.13 in - NNE 9.2 mph 16.1 mph N/A   Unknown
4:16 PM 46.0 °F 42.5 °F 5.7 °F 19% 30.11 in - NE 6.9 mph 12.7 mph N/A   Unknown
5:16 PM 46.2 °F 44.1 °F 7.2 °F 20% 30.09 in - Variable 4.6 mph - N/A   Unknown
6:16 PM 44.2 °F 41.8 °F 5.4 °F 20% 30.09 in - Variable 4.6 mph - N/A   Unknown
7:16 PM 31.6 °F - 15.1 °F 50% 30.11 in - Calm Calm - N/A   Unknown
8:16 PM 30.0 °F - 21.4 °F 70% 30.15 in - Calm Calm - 0.00 in   Unknown
9:16 PM 26.6 °F - 21.2 °F 80% 30.16 in - Calm Calm - N/A   Unknown
10:16 PM 21.6 °F - 17.6 °F 85% 30.17 in - Calm Calm - 0.00 in   Unknown
11:16 PM 19.0 °F - 16.5 °F 90% 30.16 in - Calm Calm - 0.00 in   Unknown